< < Back
Terminal Aerodrome Forecast


Current Version              Previous Versions:   1  2  3  4  5  6  7  8  9  

Terminal Aerodrome Forecast

358
FTUS44 KBMX 010104 AAA
TAFBHM
TAF AMD
KBHM 010104Z 0101/0124 30005KT P6SM VCTS BKN050CB BKN100
     FM010130 30015G30KT 2SM +TSRA BKN040CB OVC110
     FM010230 25006KT P6SM OVC080
     FM010800 00000KT 4SM BR BKN010
     FM011400 34003KT P6SM SCT025 BKN100=

Latest METAR

020
SAUS70 KWBC 010900 RRP
MTRBHM
METAR KBHM 010853Z 24007KT 7SM -RA OVC090 14/14 A3007 RMK AO2 TSE29
SLP175 TS MOV E P0009 60040 T01440139 51019


USA.gov is the U.S. government's official web portal to all federal, state and local government web resources and services.